1st Responders/1st Detectors/Storm Spotters Weather Summary for Graves County, KY

Forecast Maps


Reg. NEXRAD Animation


National Fire Danger: Day 1 & 2 Map

Current NWS Watch/Warnings

SPC Convective Day 1 Outlook


Day 2 Outlook

(Click images to enlarge|Page will refresh every 5 minutes)
UK Ag. Weather Center Desktop Severe Weather Service[HERE]
Graves County, KY Hazardous Weather Outlook Webcast
(9 AM to 9 PM Mon-Fri)
[Fast]
[Dial-up]


UKAWC 1st Detectors/1st Responders Precision Weather Forecast For GRAVES County, Kentucky
(based on the NWS County Digital Forecast)

ISSUED AT 17:00 UTC ON FRIDAY MAR 22 2019
DAY FRIDAY
CDT 3HR 1P 2P 3P 4P 5P 6P
MAX/MIN -- -- -- -- -- 65°
TEMP 61° 63° 65° 65° 63° 61°
SKY COVER 1% 1% 1% 1% 1% 1%
Clouds
DEW PT 34° 34° 34° 34° 34° 34°
RH 36% 33% 32% 31% 32% 36%
POP 12HR -- -- -- -- -- --
RAIN/SNOW (liq.equ) 0.00in -- -- -- -- --
SNOWFALL 0in -- -- -- -- --
WIND SPEED(MPH) 10 10 10 10 9 7
WIND Gust(MPH) 17 16 16 15 14 10
WIND DIR NW NW NW NW NW N
DEW -- -- -- -- -- --
HeatIndex 61 63 65 65 63 61
Rain Showers -- -- -- -- -- --
Thunder Storm -- -- -- -- -- --
WIND CHILL -- -- -- -- -- --
SPRAY COND
DRY COND
LIVESTOCK COLDSTRESS



DAY SATURDAY SUNDAY MONDAY TUESDAY WEDNESDAY THURSDAY
CDT 6HR 7P 8P 9P 10P 11P MIDN 1A 2A 3A 4A 5A 6A 7A 8A 9A 10A 11A NOON 1P 2P 3P 4P 5P 6P 7P 8P 9P 10P 11P MIDN 1A 4A 7A 10A 1P 4P 7P 1A 7A 1P 7P 1A 7A 1P 7P 1A 7A 1P 7P 1A 7A 1P 7P
MAX/MIN -- -- -- -- -- -- -- -- -- -- -- -- 31° -- -- -- -- -- -- -- -- -- -- 59° -- -- -- -- -- -- -- -- 43° -- -- 61° -- -- 50° 59° -- -- 34° 52° -- -- 31° 59° -- -- 43° 67° --
TEMP 58° 54° 49° 47° 43° 40° 38° 38° 36° 36° 34° 31° 31° 34° 40° 45° 49° 52° 54° 58° 59° 59° 58° 56° 54° 52° 49° 47° 45° 45° 43° 43° 45° 52° 58° 61° 61° 54° 50° 59° 52° 43° 34° 49° 47° 38° 34° 58° 54° 45° 45° 65° 63°
SKY COVER 1% 2% 3% 4% 4% 5% 6% 7% 8% 9% 10% 11% 12% 11% 10% 9% 10% 11% 13% 17% 21% 25% 39% 52% 65% 69% 75% 78% 80% 83% 85% 71% 87% 91% 96% 90% 88% 93% 75% 79% 83% 57% 28% 13% 7% 3% 5% 7% 24% 24% 43% 56% 64%
Clouds
DEW PT 34° 34° 34° 34° 34° 34° 32° 31° 31° 29° 29° 27° 27° 27° 27° 27° 27° 29° 29° 29° 27° 29° 29° 31° 31° 31° 31° 31° 31° 32° 32° 34° 36° 40° 47° 47° 47° 50° 49° 47° 38° 31° 23° 22° 25° 27° 25° 32° 38° 38° 38° 43° 43°
RH 41% 48% 55% 62% 70% 75% 78% 78% 78% 78% 81% 85% 81% 71% 59% 51% 43% 39% 36% 32% 29% 30% 31% 36% 42% 46% 49% 53% 57% 62% 64% 67% 70% 65% 66% 59% 62% 86% 93% 61% 59% 62% 66% 34% 40% 64% 72% 38% 52% 73% 73% 46% 47%
POP 12HR 0% -- -- -- -- -- -- -- -- -- -- -- 0% -- -- -- -- -- -- -- -- -- -- -- 2% -- -- -- -- -- -- -- 14% -- -- -- 42% -- 81% -- 24% -- 12% -- 2% -- 0% -- 1% -- 2% -- 8%
RAIN/SNOW (liq.equ) 0.00in -- -- -- -- -- 0.00in -- -- -- -- -- 0.00in -- -- -- -- -- 0.00in -- -- -- -- -- 0.00in -- -- -- -- -- 0.00in -- 0.00in -- 0.06in -- 0.12in 0.12in 0.20in -- -- -- -- -- -- -- -- -- -- -- -- -- --
SNOWFALL 0in -- -- -- -- -- 0in -- -- -- -- -- 0in -- -- -- -- -- 0in -- -- -- -- -- 0in -- -- -- -- -- 0in -- 0in -- 0in -- 0in 0in 0in -- -- -- -- -- -- -- -- -- -- -- -- -- --
WIND SPEED(MPH) 7 6 5 5 5 6 6 6 5 5 5 5 5 6 6 7 7 6 6 6 5 5 5 5 5 5 5 5 5 5 5 5 7 9 10 14 9 9 7 13 14 9 10 9 7 2 5 6 5 7 10 15 13
WIND DIR N N N N NE NE NE NE NE E E E E E E E E E E E E E E E E E E E E SE SE SE SE S S S S SW W N N N NE NE NE NE E S S S S S S
HeatIndex 58 54 49 47 41 37 34 33 33 32 29 27 27 29 35 41 49 52 54 58 59 59 58 56 54 52 49 47 45 42 41 41 41 52 58 61 61 54 50 59 52 37 25 49 47 35 29 58 54 45 45 65 63
Rain Showers -- -- -- -- -- -- -- -- -- -- -- -- -- -- -- -- -- -- -- -- -- -- -- -- -- -- -- -- -- -- -- -- Chance Chance Chance Chance Likely Definite Slight Chance Slight Chance -- -- -- -- -- -- -- -- -- -- -- -- --
Thunder Storm -- -- -- -- -- -- -- -- -- -- -- -- -- -- -- -- -- -- -- -- -- -- -- -- -- -- -- -- -- -- -- -- -- -- -- -- Chance Slight Chance -- -- -- -- -- -- -- -- -- -- -- -- -- -- --
WIND CHILL -- -- -- -- 40° 36° 34° 34° 32° 32° 30° 26° 26° 29° 36° 41° -- -- -- -- -- -- -- -- -- -- -- -- 43° 43° 40° 40° 41° -- -- -- -- -- -- -- -- 38° 26° -- -- -- 30° -- -- 41° 40° -- --
SPRAY COND
DRY COND
LIVESTOCK COLDSTRESS

Click on individual weather variable above in left-hand column (ie., TEMP, RH, QPF 12HR) to view state forecast maps






NWS 48 Hr. Forecast Maps,

Regional Hourly Observations For GRAVES County, Kentucky
Issued at 100 PM EDT FRI MAR 22 2019
WESTERN AND SOUTH CENTRAL KENTUCKY
  
CITY           SKY/WX    TMP DP  RH WIND       PRES   REMARKS
PADUCAH        FAIR      61  36  39 W12G17    30.12F                  
HENDERSON      FAIR      53  40  61 W15G22    30.11R                  
OWENSBORO      FAIR      54  39  57 NW14G20   30.09S                  
HOPKINSVILLE   NOT AVBL                                               
BOWLING GREEN  FAIR      60  33  36 W14G23    30.07F                  
GLASGOW        FAIR      57  33  41 W14G22    30.06S                  


Current NOWCAST not available:
Nowcasts are not issued routinely during fair weather. Only when
precipitation or other significant weather is occuring in this county will these
forecasts be issued. Currently, there is no short term forecast in effect.


Fire Weather Forecast For GRAVES County, KY
Provided by the National Weather Service:

Issued at: Fri Mar 22 13:05:01 EDT 2019

Cloud Cover           Clear        Clear        MClear       
Precip Type           None         None         None         
Chance Precip (%)     0            0            10           
High Temperature(F)   61-65                     58-62        
Minimum RH(%)         29-34                     33-38        
Low Temperature(F)                 31-35                     
Maximum RH(%)                      81-86                     
Temp (24h Trend)      64 (+12)     32 (-2)      61           
RH % (24h Trend)      32 (-15)     84 (-9)      36           
20FTWND-AM(MPH)       W 6-10 G18                E 4-8        
20FTWND-PM(MPH)       NW 8-12 G19  N 3-7        E 3-7        
Precip Amount         0.00         0.00         0.00         
Precip Duration                                 0            
Precip Begin                                                 
Precip End                                                   
1700'Mix Hgt Temp     54                        51           
Mixing Hgt(FT-AGL)    4475                      3991         
Transport Wind (KTS)  NW 19                     SE  4        
Transport Wind (M/S)  NW 10                     SE  2        
Vent Rate (M/S-M)     13640                     2432         
Dispersion Index      Good                      Poor to Fair 
LAL                   1            1            1            
Haines Index          4            5            5            
Stability(DSI)        SLGT UNSTBL  N/A          STBL         

Remarks...None.

.Forecast for days 3 through 7...

.SATURDAY NIGHT...Mostly cloudy. Lows in the mid 40s. Southeast
winds 5 to 10 mph. 
.SUNDAY...Cloudy with a 50 percent chance of rain showers. Highs
in the lower 60s. South winds 5 to 15 mph. 
.SUNDAY NIGHT...Rain showers and chance of thunderstorms. Lows in
the lower 50s. Southwest winds 5 to 15 mph. 
.MONDAY...Mostly cloudy with a 20 percent chance of rain showers.
Highs around 60. North winds 5 to 15 mph with gusts to around
30 mph. 
.MONDAY NIGHT...Mostly cloudy. Colder. Lows in the mid 30s. North
winds 10 to 15 mph. Gusts up to 30 mph in the evening. 
.TUESDAY...Sunny. Highs in the lower 50s. Northeast winds 5 to
15 mph. 
.TUESDAY NIGHT...Clear. Lows in the lower 30s. Northeast winds
5 to 10 mph. 
.WEDNESDAY...Sunny. Highs around 60. Southeast winds around
5 mph. 
.WEDNESDAY NIGHT...Mostly clear. Not as cool. Lows in the mid
40s. South winds 5 to 10 mph. 
.THURSDAY...Partly sunny. Highs in the upper 60s. South winds
10 to 20 mph. 

SPC's Fire Weather Web Tool (Excellent!), SPC's Fire Weather Outlooks, NWS Fire Weather WEB, Fire Danger Class Map,
Keetch-Byram Drought Index, ROMAN Web, Haines Index ,
WFAS's 10-hr Dead Fuel Moist., WFAS's 100-hr Dead Fuel Moist., Probablity of Ignition, Visual blackness Map, Palmer Drought Index, HPC's Rainfall Forecast Maps


Hazardous Weather Outlook For GRAVES County, Kentucky
349 AM CDT Fri Mar 22 2019

 DAY ONE  Today and Tonight

No hazardous weather is expected at this time.

Moderate flooding continues on the Mississippi River and the Ohio
River downstream of Paducah to Cairo.  Minor flooding continues 
on a few other rivers. Please refer to flood statements for more 
details.

 DAYS TWO THROUGH SEVEN  Saturday through Thursday

There is a chance for a few thunderstorms Sunday and Sunday night.
Severe weather is not expected.

Flooding will continue on several rivers. Please refer to flood
statements for details.

 SPOTTER INFORMATION STATEMENT  

Spotter activation will not be needed.

Latest GRAVES County, Kentucky Watches, Warnings and Advisories.
Additional Drought Info.: UKAWC Drought Page, Kentucky Drought Watch


7-Day Forecast For GRAVES County, KY

TODAY
Sunny. Highs in the mid 60s. West winds around 10 mph.

TONIGHT
Clear. Lows in the lower 30s. Northeast winds around 5 mph.

SATURDAY
Mostly sunny. Highs in the lower 60s. East winds around 5 mph.

SATURDAY NIGHT
Mostly cloudy. Lows in the mid 40s. East winds around 5 mph.

SUNDAY
Mostly cloudy with a 50 percent chance of showers. Highs in the lower 60s. South winds 10 to 15 mph.

SUNDAY NIGHT
Showers and a chance of thunderstorms. Lows in the lower 50s. Chance of precipitation 90 percent.

MONDAY
Mostly cloudy with a 30 percent chance of showers. Highs around 60.

MONDAY NIGHT
Mostly cloudy. Lows in the mid 30s.

TUESDAY
Mostly sunny. Highs in the lower 50s.

TUESDAY NIGHT
Clear. Lows in the lower 30s.

WEDNESDAY
Sunny. Highs around 60.

WEDNESDAY NIGHT
Mostly clear. Lows in the mid 40s.

THURSDAY
Partly sunny. Highs in the upper 60s.

Ag Weather Center, Department of Biosystems & Agricultural Engineering, University of Kentucky